Terug naar catalogus

STARLINK-6358

ActiefCommunicatieVLEO
NORAD 57377·PAYLOAD·🇺🇸 United States

Gelanceerd Jul 16, 2023 vanaf Cape Canaveral Space Force Station

Loading…

Volgende Passages (komende 24 uur)

TLE

VersSource: CelesTrak SupGP

Epoch: Sep 15, 2026, 02:28 UTC

1 57377C 23099BB  26258.10326389 -.00022284  00000+0 -80717-3 0  2580
2 57377  43.0000 255.6759 0000786 252.3370 134.3148 15.27587478    19

Volg STARLINK-6358 in realtime met AllMySat

Download on the App Store